Regional Weather Roundup
Issued by NWS

Home | Current Version | Previous Version | Graphics & Text | Print | Product List | Glossary Off
Versions: 1 2 3 4 5 6 7 8 9 10 11 12 13 14 15 16 17 18 19 20 21 22 23 24 25 26 27 28 29 30 31 32 33 34 35 36 37 38 39 40 41 42 43 44 45 46 47 48 49 50

000
ASUS45 KCYS 261510
RWRWY

WYOMING REGIONAL WEATHER ROUNDUP
NATIONAL WEATHER SERVICE CHEYENNE WY
900 AM MDT TUE SEP 26 2017

NOTE:  "FAIR" INDICATES FEW OR NO CLOUDS BELOW 12,000 FEET
WITH NO SIGNIFICANT WEATHER AND/OR OBSTRUCTIONS TO VISIBILITY.

WYZ001-261600-
YELLOWSTONE NATIONAL PARK

CITY           SKY/WX    TMP DP  RH WIND       PRES   REMARKS
LK YELLOWSTONE NOT AVBL
W YELLOWSTONE  NOT AVBL

$$
WYZ002>013-054>058-071-098>099-261600-
NORTHERN WYOMING

CITY           SKY/WX    TMP DP  RH WIND       PRES   REMARKS
JACKSON        NOT AVBL
CODY           FAIR      42  36  79 CALM      30.20R
GREYBULL       FAIR      44  41  89 CALM      30.18R
WORLAND        FAIR      43  40  89 S6        30.18R
SHERIDAN       FAIR      46  39  76 S3        30.15R
BUFFALO        PTSUNNY   47  31  53 NW5       30.17R
GILLETTE       FAIR      48  35  60 W10       30.14R
HULETT         FAIR      46  39  76 SW9       30.14R
NEWCASTLE      FAIR      45  41  87 CALM      30.17R

$$
WYZ014>020-022>026-101>103-261600-
CENTRAL WYOMING

CITY           SKY/WX    TMP DP  RH WIND       PRES   REMARKS
BIG PINEY      FAIR      31  28  89 CALM      30.26R
PINEDALE       FAIR      32  28  86 CALM      30.27R
DUBOIS         FAIR      32  27  80 NW8       30.23S WCI  25
LANDER         FAIR      40  34  79 E5        30.20R
RIVERTON       FAIR      42  31  64 W9        30.21R
CASPER         FAIR      42  37  82 SW13      30.20R
DOUGLAS        FAIR      42  37  82 VRB3      30.21R

$$
WYZ021-027>030-104>119-261600-
SOUTHERN WYOMING

CITY           SKY/WX    TMP DP  RH WIND       PRES   REMARKS
EVANSTON       FAIR      35  30  82 NE3       30.23R
FORT BRIDGER   FAIR      37  34  91 CALM      30.27S
ROCK SPRINGS   FAIR      34  30  85 CALM      30.25R
DIXON          FAIR      37  29  72 SE8       30.26S WCI  31
RAWLINS        FAIR      38  31  76 VRB3      30.24R
SARATOGA       FAIR      36  30  80 S12       30.26R WCI  27
LARAMIE        FAIR      35  30  82 S5        30.23R WCI  31
CHEYENNE       FAIR      46  35  65 W7        30.21R
TORRINGTON     FOG       40  40 100 NW7       30.18R VSB 1/4
PINE BLUFFS    FAIR      45  43  93 SW8       30.21S

$$



USA.gov is the U.S. government's official web portal to all federal, state and local government web resources and services.